Wetterdaten: Woche 11.10.04 - 17.10.04 (KW42)
Datum Zeit Temperatur Luftfeuchte Luftdruck Niederschlag Taupunkt Windchill Wind
11.10.2004 00:00 6,9 C 92 % 1015 hPa 0,0 l/m 5,7 C 2,7 C 14,6 km/h (3 Bft)
11.10.2004 01:00 6,9 C 91 % 1015 hPa 0,0 l/m 5,5 C 2,9 C 13,8 km/h (3 Bft)
11.10.2004 02:00 6,9 C 90 % 1015 hPa 0,0 l/m 5,4 C 2,3 C 15,6 km/h (3 Bft)
11.10.2004 03:00 6,7 C 91 % 1015 hPa 0,0 l/m 5,4 C 2,3 C 14,4 km/h (3 Bft)
11.10.2004 04:00 6,2 C 89 % 1015 hPa 0,0 l/m 4,5 C 1,8 C 14,6 km/h (3 Bft)
11.10.2004 05:00 5,8 C 87 % 1015 hPa 0,0 l/m 3,7 C 1,6 C 14,5 km/h (3 Bft)
11.10.2004 06:00 5,4 C 87 % 1016 hPa 0,0 l/m 3,4 C 0,9 C 15,2 km/h (3 Bft)
11.10.2004 07:00 5,2 C 87 % 1016 hPa 0,0 l/m 3,2 C 1,1 C 13,5 km/h (3 Bft)
11.10.2004 08:00 5,0 C 88 % 1017 hPa 0,0 l/m 3,2 C 0,5 C 14,4 km/h (3 Bft)
11.10.2004 09:00 5,2 C 89 % 1017 hPa 0,0 l/m 3,5 C 1,8 C 12,3 km/h (3 Bft)
11.10.2004 10:00 5,4 C 87 % 1017 hPa 0,0 l/m 3,5 C 0,8 C 14,9 km/h (3 Bft)
11.10.2004 11:00 5,8 C 86 % 1017 hPa 0,0 l/m 3,6 C 1,2 C 14,2 km/h (3 Bft)
11.10.2004 12:00 6,3 C 84 % 1018 hPa 0,0 l/m 3,8 C 1,6 C 15,5 km/h (3 Bft)
11.10.2004 13:00 6,7 C 84 % 1018 hPa 0,0 l/m 4,1 C 2,7 C 14,0 km/h (3 Bft)
11.10.2004 14:00 7,1 C 82 % 1018 hPa 0,0 l/m 4,3 C 3,3 C 13,5 km/h (3 Bft)
11.10.2004 15:00 7,3 C 80 % 1018 hPa 0,0 l/m 4,2 C 2,7 C 15,3 km/h (3 Bft)
11.10.2004 16:00 7,3 C 80 % 1018 hPa 0,0 l/m 4,0 C 2,2 C 15,6 km/h (3 Bft)
11.10.2004 17:00 7,3 C 80 % 1018 hPa 0,0 l/m 4,0 C 2,0 C 16,8 km/h (3 Bft)
11.10.2004 18:00 7,3 C 80 % 1019 hPa 0,0 l/m 4,2 C 4,5 C 11,2 km/h (2 Bft)
11.10.2004 19:00 7,5 C 79 % 1019 hPa 0,0 l/m 4,1 C 3,9 C 12,9 km/h (3 Bft)
11.10.2004 20:00 7,7 C 77 % 1019 hPa 0,0 l/m 3,9 C 3,1 C 14,6 km/h (3 Bft)
11.10.2004 21:00 7,4 C 76 % 1019 hPa 0,0 l/m 3,5 C 2,4 C 15,3 km/h (3 Bft)
11.10.2004 22:00 7,2 C 77 % 1019 hPa 0,0 l/m 3,5 C 3,0 C 14,1 km/h (3 Bft)
11.10.2004 23:00 7,1 C 77 % 1019 hPa 0,0 l/m 3,3 C 3,7 C 12,9 km/h (3 Bft)
12.10.2004 00:00 6,9 C 78 % 1019 hPa 0,0 l/m 3,3 C 3,8 C 12,2 km/h (2 Bft)
12.10.2004 01:00 6,6 C 77 % 1019 hPa 0,0 l/m 2,9 C 3,4 C 12,5 km/h (3 Bft)
12.10.2004 02:00 6,3 C 77 % 1019 hPa 0,0 l/m 2,5 C 2,3 C 13,4 km/h (3 Bft)
12.10.2004 03:00 5,8 C 78 % 1019 hPa 0,0 l/m 2,2 C 2,0 C 12,9 km/h (3 Bft)
12.10.2004 04:00 5,5 C 79 % 1019 hPa 0,0 l/m 2,1 C 3,6 C 9,2 km/h (2 Bft)
12.10.2004 05:00 5,1 C 80 % 1019 hPa 0,0 l/m 1,9 C 3,4 C 9,4 km/h (2 Bft)
12.10.2004 06:00 4,6 C 82 % 1019 hPa 0,0 l/m 1,9 C 2,7 C 10,0 km/h (2 Bft)
12.10.2004 07:00 4,3 C 84 % 1019 hPa 0,0 l/m 1,8 C 3,1 C 8,4 km/h (2 Bft)
12.10.2004 08:00 4,2 C 86 % 1019 hPa 0,0 l/m 2,1 C 2,7 C 8,5 km/h (2 Bft)
12.10.2004 09:00 4,4 C 87 % 1020 hPa 0,0 l/m 2,5 C 2,2 C 10,0 km/h (2 Bft)
12.10.2004 10:00 4,8 C 88 % 1020 hPa 0,0 l/m 2,9 C 3,8 C 7,5 km/h (2 Bft)
12.10.2004 11:00 5,4 C 88 % 1020 hPa 0,0 l/m 3,5 C 3,6 C 9,3 km/h (2 Bft)
12.10.2004 12:00 6,2 C 86 % 1020 hPa 0,0 l/m 4,0 C 4,5 C 9,5 km/h (2 Bft)
12.10.2004 13:00 7,1 C 84 % 1020 hPa 0,0 l/m 4,6 C 5,6 C 8,4 km/h (2 Bft)
12.10.2004 14:00 7,8 C 84 % 1020 hPa 0,0 l/m 5,2 C 6,6 C 8,2 km/h (2 Bft)
12.10.2004 15:00 8,0 C 84 % 1020 hPa 0,0 l/m 5,5 C 6,1 C 10,2 km/h (2 Bft)
12.10.2004 16:00 7,6 C 86 % 1020 hPa 0,0 l/m 5,5 C 4,5 C 12,2 km/h (2 Bft)
12.10.2004 17:00 7,2 C 90 % 1020 hPa 0,0 l/m 5,6 C 4,8 C 10,4 km/h (2 Bft)
12.10.2004 18:00 6,8 C 93 % 1020 hPa 0,0 l/m 5,9 C 5,0 C 9,8 km/h (2 Bft)
12.10.2004 19:00 6,6 C 94 % 1020 hPa 0,0 l/m 5,6 C 5,6 C 7,1 km/h (2 Bft)
12.10.2004 20:00 6,4 C 93 % 1020 hPa 0,0 l/m 5,3 C 5,8 C 6,2 km/h (2 Bft)
13.10.2004 00:00 5,9 C 96 % 1020 hPa 0,0 l/m 5,3 C 5,9 C 0,0 km/h (0 Bft)
13.10.2004 01:00 6,0 C 96 % 1020 hPa 0,0 l/m 5,5 C 6,0 C 0,0 km/h (0 Bft)
13.10.2004 02:00 6,2 C 97 % 1019 hPa 0,0 l/m 5,8 C 6,2 C 0,0 km/h (0 Bft)
13.10.2004 03:00 6,4 C 97 % 1019 hPa 0,0 l/m 5,9 C 6,3 C 0,8 km/h (0 Bft)
13.10.2004 04:00 6,3 C 97 % 1019 hPa 0,0 l/m 5,9 C 6,3 C 0,0 km/h (0 Bft)
13.10.2004 05:00 6,2 C 97 % 1019 hPa 0,0 l/m 5,8 C 6,1 C 1,7 km/h (1 Bft)
13.10.2004 06:00 6,1 C 97 % 1019 hPa 0,0 l/m 5,7 C 6,1 C 1,4 km/h (1 Bft)
13.10.2004 07:00 6,1 C 98 % 1019 hPa 0,0 l/m 5,8 C 6,0 C 1,2 km/h (1 Bft)
13.10.2004 08:00 6,3 C 98 % 1019 hPa 0,0 l/m 6,0 C 6,3 C 0,0 km/h (0 Bft)
13.10.2004 09:00 6,9 C 98 % 1019 hPa 0,0 l/m 6,5 C 6,9 C 1,0 km/h (0 Bft)
13.10.2004 10:00 7,9 C 94 % 1019 hPa 0,0 l/m 7,0 C 7,7 C 1,5 km/h (1 Bft)
13.10.2004 11:00 8,8 C 87 % 1019 hPa 0,0 l/m 6,8 C 8,7 C 2,0 km/h (1 Bft)
13.10.2004 12:00 10,2 C 78 % 1018 hPa 0,0 l/m 6,6 C 10,1 C 2,5 km/h (1 Bft)
13.10.2004 13:00 11,9 C 70 % 1018 hPa 0,0 l/m 6,7 C 11,7 C 3,6 km/h (1 Bft)
13.10.2004 14:00 12,9 C 68 % 1017 hPa 0,0 l/m 7,1 C 12,4 C 4,7 km/h (1 Bft)
13.10.2004 15:00 13,9 C 65 % 1016 hPa 0,0 l/m 7,5 C 13,6 C 4,5 km/h (1 Bft)
13.10.2004 16:00 13,2 C 70 % 1016 hPa 0,0 l/m 7,8 C 12,4 C 7,5 km/h (2 Bft)
13.10.2004 17:00 11,7 C 80 % 1016 hPa 0,0 l/m 8,3 C 10,8 C 8,0 km/h (2 Bft)
13.10.2004 18:00 9,9 C 85 % 1016 hPa 0,0 l/m 7,5 C 9,0 C 5,8 km/h (2 Bft)
13.10.2004 19:00 8,3 C 91 % 1016 hPa 0,0 l/m 6,9 C 7,3 C 6,7 km/h (2 Bft)
13.10.2004 20:00 7,7 C 94 % 1016 hPa 0,0 l/m 6,8 C 7,7 C 0,3 km/h (0 Bft)
13.10.2004 21:00 7,8 C 96 % 1015 hPa 0,0 l/m 7,1 C 7,7 C 1,1 km/h (0 Bft)
13.10.2004 22:00 7,9 C 97 % 1015 hPa 0,0 l/m 7,4 C 7,9 C 0,4 km/h (0 Bft)
13.10.2004 23:00 7,8 C 98 % 1015 hPa 0,0 l/m 7,5 C 7,8 C 0,0 km/h (0 Bft)
14.10.2004 00:00 8,0 C 98 % 1014 hPa 0,0 l/m 7,7 C 8,0 C 0,0 km/h (0 Bft)
14.10.2004 01:00 8,0 C 98 % 1014 hPa 0,0 l/m 7,7 C 8,0 C 0,2 km/h (0 Bft)
14.10.2004 02:00 8,2 C 99 % 1013 hPa 0,0 l/m 8,1 C 8,2 C 0,7 km/h (0 Bft)
14.10.2004 03:00 8,3 C 99 % 1013 hPa 0,0 l/m 8,3 C 7,8 C 4,7 km/h (1 Bft)
14.10.2004 04:00 8,4 C 100 % 1013 hPa 0,0 l/m 8,4 C 7,5 C 6,3 km/h (2 Bft)
14.10.2004 05:00 8,4 C 100 % 1012 hPa 0,0 l/m 8,4 C 8,4 C 3,0 km/h (1 Bft)
14.10.2004 06:00 8,5 C 100 % 1012 hPa 0,0 l/m 8,5 C 8,5 C 1,9 km/h (1 Bft)
14.10.2004 07:00 8,5 C 100 % 1012 hPa 0,0 l/m 8,5 C 8,1 C 2,9 km/h (1 Bft)
14.10.2004 08:00 8,7 C 100 % 1012 hPa 0,0 l/m 8,7 C 6,9 C 8,8 km/h (2 Bft)
14.10.2004 09:00 9,0 C 100 % 1012 hPa 0,0 l/m 9,0 C 6,8 C 10,7 km/h (2 Bft)
14.10.2004 10:00 9,8 C 98 % 1012 hPa 0,0 l/m 9,5 C 8,1 C 9,3 km/h (2 Bft)
14.10.2004 11:00 11,1 C 89 % 1011 hPa 0,0 l/m 9,3 C 8,7 C 10,7 km/h (2 Bft)
14.10.2004 12:00 13,0 C 77 % 1011 hPa 0,0 l/m 9,0 C 11,7 C 8,0 km/h (2 Bft)
14.10.2004 13:00 15,1 C 65 % 1010 hPa 0,0 l/m 8,4 C 14,6 C 5,9 km/h (2 Bft)
14.10.2004 14:00 16,1 C 58 % 1009 hPa 0,0 l/m 7,9 C 16,0 C 3,0 km/h (1 Bft)
14.10.2004 15:00 16,1 C 58 % 1008 hPa 0,0 l/m 7,9 C 15,3 C 7,6 km/h (2 Bft)
14.10.2004 16:00 15,2 C 60 % 1007 hPa 0,0 l/m 7,4 C 14,8 C 6,7 km/h (2 Bft)
14.10.2004 17:00 14,3 C 66 % 1007 hPa 0,0 l/m 8,1 C 13,8 C 6,4 km/h (2 Bft)
14.10.2004 18:00 13,0 C 74 % 1007 hPa 0,0 l/m 8,4 C 13,0 C 0,4 km/h (0 Bft)
14.10.2004 19:00 10,7 C 84 % 1007 hPa 0,0 l/m 8,1 C 10,6 C 2,1 km/h (1 Bft)
14.10.2004 20:00 10,0 C 91 % 1006 hPa 1,0 l/m 8,6 C 7,5 C 9,4 km/h (2 Bft)
14.10.2004 21:00 9,1 C 95 % 1007 hPa 0,0 l/m 8,4 C 5,0 C 16,4 km/h (3 Bft)
14.10.2004 22:00 8,5 C 96 % 1007 hPa 0,0 l/m 7,9 C 8,3 C 3,4 km/h (1 Bft)
14.10.2004 23:00 8,3 C 97 % 1007 hPa 0,0 l/m 7,8 C 8,3 C 0,0 km/h (0 Bft)
15.10.2004 00:00 8,2 C 98 % 1007 hPa 0,0 l/m 7,9 C 8,0 C 3,6 km/h (1 Bft)
15.10.2004 01:00 8,4 C 100 % 1007 hPa 0,0 l/m 8,4 C 7,9 C 4,7 km/h (1 Bft)
15.10.2004 02:00 8,3 C 100 % 1006 hPa 0,0 l/m 8,3 C 8,3 C 0,0 km/h (0 Bft)
15.10.2004 03:00 8,2 C 100 % 1006 hPa 0,0 l/m 8,2 C 8,2 C 0,1 km/h (0 Bft)
15.10.2004 04:00 8,1 C 100 % 1005 hPa 0,0 l/m 8,1 C 8,1 C 1,0 km/h (0 Bft)
15.10.2004 05:00 7,9 C 100 % 1005 hPa 0,0 l/m 7,9 C 7,9 C 0,0 km/h (0 Bft)
15.10.2004 06:00 7,5 C 100 % 1005 hPa 0,0 l/m 7,5 C 7,5 C 0,6 km/h (0 Bft)
15.10.2004 07:00 7,2 C 100 % 1004 hPa 0,0 l/m 7,2 C 7,2 C 0,0 km/h (0 Bft)
15.10.2004 08:00 7,2 C 100 % 1004 hPa 0,0 l/m 7,2 C 7,2 C 0,0 km/h (0 Bft)
15.10.2004 09:00 8,2 C 100 % 1004 hPa 0,0 l/m 8,2 C 8,2 C 0,0 km/h (0 Bft)
15.10.2004 10:00 9,4 C 98 % 1004 hPa 0,0 l/m 9,0 C 9,4 C 0,0 km/h (0 Bft)
15.10.2004 11:00 10,1 C 83 % 1004 hPa 0,0 l/m 7,3 C 8,7 C 8,6 km/h (2 Bft)
15.10.2004 12:00 10,3 C 76 % 1004 hPa 0,0 l/m 6,2 C 8,2 C 11,2 km/h (2 Bft)
15.10.2004 13:00 12,4 C 65 % 1004 hPa 0,0 l/m 6,0 C 9,8 C 13,1 km/h (3 Bft)
15.10.2004 14:00 12,4 C 64 % 1002 hPa 0,0 l/m 5,7 C 11,7 C 6,2 km/h (2 Bft)
15.10.2004 15:00 12,7 C 63 % 1001 hPa 0,0 l/m 5,8 C 10,7 C 11,0 km/h (2 Bft)
15.10.2004 16:00 11,8 C 69 % 1001 hPa 0,0 l/m 6,2 C 10,5 C 9,8 km/h (2 Bft)
15.10.2004 17:00 9,2 C 90 % 1002 hPa 2,0 l/m 7,6 C 3,9 C 19,3 km/h (3 Bft)
15.10.2004 18:00 7,6 C 94 % 1003 hPa 0,0 l/m 6,6 C 1,5 C 21,6 km/h (4 Bft)
15.10.2004 19:00 6,2 C 92 % 1004 hPa 2,0 l/m 4,9 C 2,2 C 14,3 km/h (3 Bft)
15.10.2004 20:00 5,8 C 98 % 1004 hPa 1,0 l/m 5,5 C 3,6 C 9,9 km/h (2 Bft)
15.10.2004 21:00 5,7 C 100 % 1005 hPa 1,0 l/m 5,7 C 1,2 C 13,6 km/h (3 Bft)
15.10.2004 22:00 5,2 C 100 % 1005 hPa 2,0 l/m 5,2 C -1,4 C 18,7 km/h (3 Bft)
15.10.2004 23:00 5,0 C 100 % 1005 hPa 1,0 l/m 5,0 C -1,3 C 18,2 km/h (3 Bft)
16.10.2004 00:00 4,8 C 100 % 1005 hPa 0,0 l/m 4,8 C -0,7 C 16,3 km/h (3 Bft)
16.10.2004 01:00 4,8 C 100 % 1005 hPa 0,0 l/m 4,8 C -1,4 C 17,6 km/h (3 Bft)
16.10.2004 02:00 4,8 C 100 % 1005 hPa 0,0 l/m 4,8 C -0,9 C 16,6 km/h (3 Bft)
16.10.2004 03:00 4,7 C 100 % 1005 hPa 0,0 l/m 4,7 C 1,2 C 12,2 km/h (2 Bft)
16.10.2004 04:00 4,7 C 100 % 1005 hPa 0,0 l/m 4,7 C 4,4 C 4,6 km/h (1 Bft)
16.10.2004 05:00 4,8 C 100 % 1005 hPa 0,0 l/m 4,8 C 2,2 C 10,7 km/h (2 Bft)
16.10.2004 06:00 4,8 C 100 % 1004 hPa 0,0 l/m 4,8 C 3,1 C 9,1 km/h (2 Bft)
16.10.2004 07:00 4,6 C 100 % 1004 hPa 0,0 l/m 4,6 C 0,7 C 12,9 km/h (3 Bft)
16.10.2004 08:00 4,4 C 100 % 1004 hPa 0,0 l/m 4,4 C -2,3 C 19,1 km/h (3 Bft)
16.10.2004 09:00 4,4 C 100 % 1005 hPa 0,0 l/m 4,4 C -0,2 C 14,2 km/h (3 Bft)
16.10.2004 10:00 5,1 C 99 % 1005 hPa 0,0 l/m 5,0 C -0,4 C 16,3 km/h (3 Bft)
16.10.2004 11:00 6,6 C 89 % 1005 hPa 0,0 l/m 4,9 C 2,2 C 14,9 km/h (3 Bft)
16.10.2004 12:00 6,7 C 87 % 1005 hPa 0,0 l/m 4,7 C 1,2 C 17,3 km/h (3 Bft)
16.10.2004 13:00 8,1 C 80 % 1004 hPa 0,0 l/m 4,8 C 3,3 C 15,6 km/h (3 Bft)
16.10.2004 14:00 9,4 C 64 % 1003 hPa 0,0 l/m 3,0 C 5,4 C 14,4 km/h (3 Bft)
16.10.2004 15:00 9,2 C 62 % 1003 hPa 0,0 l/m 2,3 C 6,3 C 12,0 km/h (2 Bft)
16.10.2004 16:00 8,8 C 67 % 1003 hPa 0,0 l/m 3,0 C 5,3 C 14,1 km/h (3 Bft)
16.10.2004 17:00 7,4 C 80 % 1003 hPa 0,0 l/m 4,2 C 4,0 C 12,3 km/h (3 Bft)
16.10.2004 18:00 6,0 C 88 % 1003 hPa 0,0 l/m 4,2 C 5,6 C 4,0 km/h (1 Bft)
16.10.2004 19:00 4,7 C 92 % 1003 hPa 0,0 l/m 3,5 C 4,5 C 3,0 km/h (1 Bft)
16.10.2004 20:00 4,8 C 94 % 1004 hPa 1,0 l/m 3,9 C 4,3 C 5,1 km/h (1 Bft)
16.10.2004 21:00 4,2 C 96 % 1004 hPa 0,0 l/m 3,6 C 3,1 C 5,5 km/h (1 Bft)
16.10.2004 22:00 4,3 C 98 % 1004 hPa 0,0 l/m 4,1 C 1,4 C 11,2 km/h (2 Bft)
16.10.2004 23:00 3,6 C 99 % 1004 hPa 0,0 l/m 3,4 C 1,3 C 10,0 km/h (2 Bft)
17.10.2004 00:00 3,6 C 100 % 1004 hPa 0,0 l/m 3,6 C 1,5 C 10,4 km/h (2 Bft)
17.10.2004 01:00 3,6 C 100 % 1004 hPa 0,0 l/m 3,6 C 0,9 C 10,1 km/h (2 Bft)
17.10.2004 02:00 2,9 C 100 % 1004 hPa 0,0 l/m 2,9 C 2,6 C 2,7 km/h (1 Bft)
17.10.2004 03:00 2,6 C 100 % 1004 hPa 0,0 l/m 2,6 C 2,6 C 0,0 km/h (0 Bft)
17.10.2004 04:00 2,3 C 100 % 1004 hPa 0,0 l/m 2,3 C 2,3 C 0,5 km/h (0 Bft)
17.10.2004 05:00 2,4 C 100 % 1004 hPa 0,0 l/m 2,4 C 2,2 C 1,4 km/h (1 Bft)
17.10.2004 06:00 3,6 C 100 % 1004 hPa 0,0 l/m 3,6 C 2,0 C 9,6 km/h (2 Bft)
17.10.2004 07:00 4,2 C 100 % 1004 hPa 0,0 l/m 4,2 C 1,3 C 10,4 km/h (2 Bft)
17.10.2004 08:00 4,6 C 100 % 1004 hPa 0,0 l/m 4,6 C 2,2 C 10,8 km/h (2 Bft)
17.10.2004 09:00 5,3 C 99 % 1004 hPa 0,0 l/m 5,1 C 1,9 C 13,0 km/h (3 Bft)
17.10.2004 10:00 6,2 C 90 % 1004 hPa 0,0 l/m 4,7 C 1,1 C 16,6 km/h (3 Bft)
17.10.2004 11:00 7,2 C 82 % 1004 hPa 0,0 l/m 4,3 C 2,1 C 17,5 km/h (3 Bft)
17.10.2004 12:00 8,7 C 75 % 1005 hPa 0,0 l/m 4,6 C 4,1 C 16,7 km/h (3 Bft)
17.10.2004 13:00 9,0 C 68 % 1007 hPa 0,0 l/m 3,4 C 4,0 C 17,3 km/h (3 Bft)
17.10.2004 14:00 8,5 C 74 % 1007 hPa 1,0 l/m 4,2 C 4,8 C 14,3 km/h (3 Bft)
17.10.2004 15:00 7,0 C 83 % 1008 hPa 0,0 l/m 4,4 C 0,0 C 23,3 km/h (4 Bft)
17.10.2004 16:00 6,7 C 81 % 1008 hPa 0,0 l/m 3,8 C -0,3 C 22,4 km/h (4 Bft)
17.10.2004 17:00 7,0 C 79 % 1008 hPa 0,0 l/m 3,7 C 1,9 C 16,8 km/h (3 Bft)
17.10.2004 18:00 7,0 C 79 % 1009 hPa 0,0 l/m 3,7 C 1,8 C 17,8 km/h (3 Bft)
17.10.2004 19:00 7,1 C 78 % 1009 hPa 0,0 l/m 3,5 C 1,4 C 18,5 km/h (3 Bft)
17.10.2004 20:00 7,0 C 79 % 1010 hPa 0,0 l/m 3,6 C 0,7 C 20,0 km/h (4 Bft)
17.10.2004 21:00 7,0 C 83 % 1010 hPa 0,0 l/m 4,2 C 2,0 C 16,5 km/h (3 Bft)
17.10.2004 22:00 7,1 C 81 % 1010 hPa 0,0 l/m 4,1 C 1,3 C 18,7 km/h (3 Bft)
17.10.2004 23:00 7,4 C 78 % 1010 hPa 0,0 l/m 3,8 C 1,7 C 17,5 km/h (3 Bft)
Min-Datum _ 17.10.04 14.10.04 15.10.04 - 16.10.04 16.10.04 11.10.04
_ Min-Zeit 04:43 14:26 15:43 - 15:05 08:42 00:42
Minimum _ 2,1 C 55 % 1000 hPa - 1,5 C -5,3 C 0,0 km/h (0 Bft)
Max-Datum _ 14.10.04 14.10.04 13.10.04 15.10.04 14.10.04 14.10.04 17.10.04
_ Max-Zeit 14:23 03:36 00:00 17:14 10:44 14:23 15:27
Maximum _ 16,3 C 100 % 1020 hPa 2,0 l/m 9,7 C 16,3 C 51,4 km/h
S (7 Bft)
Durchschnitt _ 7,4 C 88 % 1011 hPa #12,0 l/m 5,4 C 5,0 C 9,3 km/h (2 Bft)

Durchschnitt Minimum Temp.7,0 C
Durchschnitt Maximum Temp.7,8 C